Change the Weather History Date:

Monday, August 11, 2014

  Actual Average Record
Temperature  
Mean Temperature 80 °F -  
Max Temperature 88 °F 89 °F 102 °F (2007)
Min Temperature 73 °F 69 °F 60 °F (2002)
Cooling Degree Days 15    
Growing Degree Days 30 (Base 50)    
Moisture  
Dew Point 73 °F    
Average Humidity 86    
Maximum Humidity 100    
Minimum Humidity 63    
Precipitation  
Precipitation 0.00 in - - ()
Sea Level Pressure  
Sea Level Pressure 30.00 in    
Wind  
Wind Speed 3 mph (NE)    
Max Wind Speed 7 mph    
Max Gust Speed -    
Visibility 10 miles    
Events Rain    
Averages and records for this station are not official NWS values.
T = Trace of Precipitation, MM = Missing Value Source: NWS Daily Summary

Daily Weather History Graph

Daily Weather History Graph

Search for Another Location

Airport or City:

Trip Planner

Search our weather history database for the weather conditions in past years. The results will help you decide how hot, cold, wet, or windy it might be!

Date:

Astronomy

Aug. 11, 2014 Rise Set
Actual Time 6:55 AM EDT 8:23 PM EDT
Civil Twilight 6:29 AM EDT 8:49 PM EDT
Nautical Twilight 5:57 AM EDT 9:20 PM EDT
Astronomical Twilight 5:24 AM EDT 9:53 PM EDT
Moon 8:59 PM EDT (8/11) 7:52 AM EDT (8/11)
Length of Visible Light 14h 20m
Length of Day
13h 28m
Full, 99% of the Moon is Illuminated
Aug 11
Full
Aug 17
Last Quarter
Aug 25
New
Sep 2
First Quarter
Sep 8
Full

Hourly Weather History & Observations

Time (EDT) Temp. Heat Index Dew Point Humidity Pressure Visibility Wind Dir Wind Speed Gust Speed Precip Events Conditions
12:58 AM 76.3 °F - 74.3 °F 94% 30.02 in 10.0 mi NE 1.2 mph - 0.00 in Rain Light Rain
1:08 AM 77.0 °F - 73.4 °F 89% 30.02 in 10.0 mi Variable 1.2 mph - N/A   Scattered Clouds
1:58 AM 75.0 °F - 73.4 °F 95% 30.01 in 10.0 mi North 2.3 mph - 0.00 in   Partly Cloudy
2:28 AM 75.2 °F - 73.4 °F 94% 30.00 in 10.0 mi NNW 4.6 mph - N/A   Mostly Cloudy
2:41 AM 75.2 °F - 73.4 °F 94% 29.99 in 10.0 mi NNW 4.6 mph - N/A Rain Light Rain
2:58 AM 74.8 °F - 73.4 °F 95% 29.98 in 10.0 mi North 4.6 mph - 0.00 in Rain Light Rain
3:16 AM 75.2 °F - 73.4 °F 94% 29.98 in 10.0 mi North 5.8 mph - N/A   Overcast
3:46 AM 75.2 °F - 73.4 °F 94% 29.98 in 10.0 mi NNE 2.3 mph - N/A   Overcast
3:58 AM 74.5 °F - 73.0 °F 95% 29.98 in 10.0 mi NNE 4.6 mph - 0.00 in   Overcast
4:18 AM 75.2 °F - 73.4 °F 94% 29.98 in 10.0 mi NNE 4.6 mph - N/A   Overcast
4:23 AM 73.4 °F - 73.4 °F 100% 29.98 in 10.0 mi NNE 5.8 mph - N/A   Overcast
4:53 AM 73.4 °F - 73.4 °F 100% 29.98 in 10.0 mi NE 4.6 mph - N/A   Overcast
4:58 AM 74.1 °F - 72.5 °F 95% 29.98 in 10.0 mi ENE 5.8 mph - N/A   Overcast
5:58 AM 73.9 °F - 72.1 °F 94% 29.98 in 10.0 mi ENE 3.5 mph - N/A   Overcast
6:13 AM 73.4 °F - 71.6 °F 94% 29.99 in 10.0 mi NE 3.5 mph - N/A   Overcast
6:33 AM 73.4 °F - 71.6 °F 94% 29.99 in 10.0 mi NE 4.6 mph - N/A   Overcast
6:58 AM 73.8 °F - 72.3 °F 95% 30.01 in 9.0 mi ENE 5.8 mph - N/A   Overcast
7:08 AM 73.4 °F - 71.6 °F 94% 30.01 in 9.0 mi Variable 3.5 mph - N/A   Overcast
7:43 AM 73.4 °F - 71.6 °F 94% 30.02 in 8.0 mi NE 2.3 mph - N/A   Overcast
7:46 AM 73.4 °F - 71.6 °F 94% 30.02 in 9.0 mi NNE 3.5 mph - N/A Rain Light Rain
7:48 AM 73.4 °F - 71.6 °F 94% 30.02 in 8.0 mi NE 3.5 mph - N/A   Overcast
7:58 AM 74.1 °F - 72.3 °F 94% 30.02 in 8.0 mi Variable 3.5 mph - 0.00 in   Overcast
8:28 AM 75.2 °F - 71.6 °F 89% 30.03 in 8.0 mi NE 3.5 mph - N/A   Overcast
8:53 AM 75.2 °F - 73.4 °F 94% 30.04 in 9.0 mi Calm Calm - N/A   Overcast
8:58 AM 74.7 °F - 72.5 °F 93% 30.04 in 9.0 mi Calm Calm - N/A   Overcast
9:08 AM 75.2 °F - 71.6 °F 89% 30.04 in 10.0 mi Calm Calm - N/A   Overcast
9:18 AM 75.2 °F - 71.6 °F 89% 30.04 in 10.0 mi Variable 2.3 mph - N/A   Overcast
9:58 AM 76.1 °F - 72.7 °F 89% 30.04 in 10.0 mi Calm Calm - N/A   Overcast
10:13 AM 77.0 °F - 71.6 °F 83% 30.04 in 10.0 mi Variable 1.2 mph - N/A   Overcast
10:38 AM 77.0 °F - 71.6 °F 83% 30.04 in 10.0 mi Variable 2.3 mph - N/A   Overcast
10:53 AM 78.8 °F - 73.4 °F 83% 30.04 in 10.0 mi East 3.5 mph - N/A   Overcast
10:58 AM 78.6 °F - 72.9 °F 82% 30.04 in 10.0 mi NE 2.3 mph - N/A   Overcast
11:58 AM 82.8 °F 89.0 °F 73.6 °F 74% 30.03 in 10.0 mi Variable 4.6 mph - N/A   Mostly Cloudy
12:03 PM 82.4 °F 88.2 °F 73.4 °F 74% 30.03 in 10.0 mi ENE 4.6 mph - N/A   Scattered Clouds
12:18 PM 82.4 °F 88.2 °F 73.4 °F 74% 30.03 in 10.0 mi SE 5.8 mph - N/A   Mostly Cloudy
12:43 PM 82.4 °F 88.2 °F 73.4 °F 74% 30.02 in 10.0 mi Variable 2.3 mph - N/A   Overcast
12:58 PM 82.8 °F 88.2 °F 72.5 °F 71% 30.01 in 10.0 mi East 3.5 mph - N/A   Overcast
1:33 PM 84.2 °F 90.9 °F 73.4 °F 70% 29.99 in 10.0 mi SSE 4.6 mph - N/A   Mostly Cloudy
1:43 PM 86.0 °F 93.4 °F 73.4 °F 66% 29.99 in 10.0 mi Variable 1.2 mph - N/A   Mostly Cloudy
1:53 PM 84.2 °F 90.9 °F 73.4 °F 70% 29.98 in 10.0 mi Variable 2.3 mph - N/A   Mostly Cloudy
1:58 PM 84.6 °F 90.7 °F 72.7 °F 67% 29.98 in 10.0 mi NE 4.6 mph - N/A   Mostly Cloudy
2:58 PM 86.7 °F 95.0 °F 73.9 °F 66% 29.96 in 10.0 mi Variable 3.5 mph - N/A   Scattered Clouds
3:58 PM 87.4 °F 95.3 °F 73.2 °F 63% 29.94 in 10.0 mi SE 3.5 mph - N/A   Partly Cloudy
4:58 PM 86.7 °F 96.9 °F 75.9 °F 70% 29.94 in 10.0 mi North 6.9 mph - N/A   Partly Cloudy
6:58 PM 84.7 °F 94.4 °F 76.5 °F 76% 29.92 in 10.0 mi SSE 3.5 mph - N/A   Clear
7:58 PM 82.0 °F 89.4 °F 75.9 °F 82% 29.91 in 10.0 mi SSE 1.2 mph - N/A   Partly Cloudy
10:55 PM 78.8 °F - 75.2 °F 89% 29.93 in 10.0 mi SE 3.5 mph - N/A   Mostly Cloudy
10:58 PM 78.4 °F - 76.1 °F 92% 29.93 in 10.0 mi ESE 2.3 mph - N/A   Mostly Cloudy
11:58 PM 77.0 °F - 75.6 °F 95% 29.94 in 10.0 mi Calm Calm - N/A   Partly Cloudy